Back to catalog

DMC 2

AliveScienceSSO
NORAD 35683·PAYLOAD·🇬🇧 United Kingdom

Launched Jul 29, 2009 from Baikonur Cosmodrome

Loading…

Next Passes (next 24 hours)

TLE

FreshSource: Space-Track

Epoch: Sep 14, 2026, 13:39 UTC

1 35683U 09041C   26257.56944396  .00000468  00000-0  74998-4 0  9996
2 35683  97.8965  30.4187 0001233  68.5963 291.5378 14.76140395919756

Track DMC 2 in real time with AllMySat

Download on the App Store